Regional Weather Roundup
Issued by NWS

Home | Current Version | Previous Version | Text Only | Print | Product List | Glossary Off
Versions: 1 2 3 4 5 6 7 8 9 10 11 12 13 14 15 16 17 18 19 20 21 22 23 24 25 26 27

000
ASUS45 KBOU 221307
RWRCO

WEATHER ROUNDUP FOR COLORADO
NATIONAL WEATHER SERVICE DENVER/BOULDER CO
700 AM MDT SAT JUL 22 2017

NOTE: "FAIR" INDICATES FEW OR NO CLOUDS BELOW 12000 FEET WITH NO
SIGNIFICANT WEATHER AND/OR OBSTRUCTIONS TO VISIBILITY.

COZ001>005-013-030-031-221400-
...NORTHWEST COLORADO...

CITY           SKY/WX    TMP DP  RH WIND       PRES   REMARKS
CRAIG          FAIR      53  50  89 SE3       30.30R
HAYDEN         FAIR      55  46  71 E10       30.32R
MEEKER         FAIR      56  52  86 NE5       30.31R
RABBIT EARS PA FAIR      48  43  81 NW6       30.57R
STEAMBOAT SPGS FAIR      51  49  93 CALM      30.35R
WALDEN         FAIR      50  46  87 SE3       30.44R
$$

COZ006>008-011-221400-
...WEST CENTRAL VALLEYS...

CITY           SKY/WX    TMP DP  RH WIND       PRES   REMARKS
GRAND JUNCTION FAIR      66  62  87 E7        30.18R
MONTROSE       FAIR      61  57  87 SE3       30.26R
EAGLE          PTSUNNY   57  55  94 CALM      30.36R
RIFLE          FAIR      60  56  86 CALM      30.25R
DELTA          FAIR      67  58  72 NE3       30.22R
NUCLA          FAIR      61  54  77 E6        30.28R
$$

COZ017>023-064>068-221400-
...SOUTHWEST COLORADO...

CITY           SKY/WX    TMP DP  RH WIND       PRES   REMARKS
DURANGO        FAIR      59  53  80 CALM      30.25R
CORTEZ         FAIR      60  57  89 CALM      30.21R
PAGOSA SPRINGS FAIR      56  53  88 CALM      30.34R
TELLURIDE      FAIR      53  50  90 S5        30.45R
WOLF CREEK PAS NOT AVBL
$$

COZ009-010-012-014-032>034-037-058>063-221400-
...CENTRAL COLORADO...

CITY           SKY/WX    TMP DP  RH WIND       PRES   REMARKS
ASPEN          FAIR      54  50  86 SW3       30.37R
BUENA VISTA    FAIR      58  47  66 NW15      30.38R
COPPER MTN     FAIR      54  37  54 W6        30.67R
BERTHOUD PASS  FAIR      41  28  60 NW8G18    30.69R
COTTONWOOD PAS PTSUNNY   59  43  55 E10       30.49S
GUNNISON       FAIR      56  52  86 CALM      30.37R
KREMMLING      FAIR      55  52  88 CALM      30.41R
LEADVILLE      FAIR      47  44  90 N5        30.50R
MONARCH PASS   CLOUDY    52  37  58 CALM      30.74S
SALIDA         FAIR      60  49  66 NW5       30.42R
SUNLIGHT       FAIR      48  39  71 NE3       30.60R
WILKERSON PASS CLOUDY    52  37  58 W5        30.62R
$$

COZ069>075-221400-
...SAN LUIS VALLEY/SANGRE DE CRISTO MOUNTAINS...

CITY           SKY/WX    TMP DP  RH WIND       PRES   REMARKS
ALAMOSA        FAIR      56  51  84 CALM      30.33R
DEL NORTE      FAIR      58  47  66 W14       30.37R
LA VETA PASS   NOT AVBL
SAGUACHE         N/A    N/A N/A N/A MISG        N/A
$$

COZ035-036-038>040-221400-
...NORTHERN COLORADO FRONT RANGE...

CITY           SKY/WX    TMP DP  RH WIND       PRES   REMARKS
DENVER INTL AP PTSUNNY   65  58  78 CALM      30.17R
DMNS CITY PARK   N/A     67  55  63 NE8       30.17R
AURORA         PTSUNNY   62  58  87 CALM      30.19R
FRONT RANGE AP FAIR      63  59  88 E6        30.20R
ERIE MUNI ARPT FAIR      62  59  90 CALM      30.15R
BOULDER MUN AP FAIR      63  57  82 CALM      30.16R
CENTENNIAL     PTSUNNY   66  55  67 CALM      30.20R
BROOMFIELD     FAIR      63  55  77 CALM      30.19R
FORT COLLINS   FAIR      64  57  78 CALM      30.14R
LONGMONT       FAIR      64  58  81 CALM      30.17R
$$

COZ041-046-047-076>085-087-088-221400-
...PIKES PEAK/PALMER DIVIDE AND SOUTHERN FOOTHILLS...

CITY           SKY/WX    TMP DP  RH WIND       PRES   REMARKS
COLO. SPRINGS  PTSUNNY   64  57  78 N5        30.24R
A. F. ACADEMY  CLOUDY    61  54  77 S5        30.24R
SCHRIEVER AFB  PTSUNNY   62  56  81 N6        30.24R
CHEYENNE MTN   PTSUNNY   63  52  66 NE3       30.22R
ELLICOTT       FAIR     N/A N/A N/A E7        30.22R
FALCON           N/A     60  56  87 NW6       30.29R
FORT CARSON    CLOUDY    62  57  83 N9        30.19R
LIMON          FAIR      62  60  93 W6        30.19R
MONUMENT HILL  FAIR      59  52  77 S6        30.30R
CANON CITY     SUNNY     70  57  64 W8        30.16R
WALSENBURG     NOT AVBL
TRINIDAD       FAIR      62  52  69 W12       30.21S
$$

COZ042>045-048>051-090-091-221400-
...NORTHEAST COLORADO...

CITY           SKY/WX    TMP DP  RH WIND       PRES   REMARKS
GREELEY ARPT   NOT AVBL
AKRON          FAIR      64  61  90 W12       30.11S
BURLINGTON     FAIR      70  61  73 NW13      30.08R
WRAY           NOT AVBL
YUMA           FAIR      64  54  68 NE9       30.08R
STERLING       FAIR      64  63  94 SW8       30.08R
HOLYOKE        FAIR      72  61  68 N8        30.07R
FORT MORGAN    FAIR      62  59  92 CALM      30.13R
$$

COZ086-089-092>099-221400-
...SOUTHEAST COLORADO...

CITY           SKY/WX    TMP DP  RH WIND       PRES   REMARKS
PUEBLO         FAIR      68  57  68 E5        30.12R
LA JUNTA       FAIR      70  57  63 W7        30.10S
LAMAR          FAIR      70  59  68 W6        30.05R
SPRINGFIELD      N/A     68  57  68 NW6       30.09R
$$




USA.gov is the U.S. government's official web portal to all federal, state and local government web resources and services.